Location: Huesca
(42.1318°N, 0.4078°W)
Time: 08:31:12
(UTC+02:00)

TIGRISAT - Pass Details

Date: 26 April 2024
Orbit: 594 x 672 km, 97.7° (Epoch: 20 May)

Event Time Altitude Azimuth Distance (km) Brightness Sun altitude
Rises 04:38:04 0° 118° (ESE) 2,916 ? -23.4°
Reaches altitude 10° 04:41:18 10° 92° (E) 1,995 ? -23.0°
Maximum altitude 04:43:23 13° 63° (ENE) 1,770 ? -22.7°
Drops below altitude 10° 04:45:27 10° 34° (NE) 1,979 ? -22.4°
Sets 04:48:38 0° 8° (N) 2,874 ? -22.0°
